This demonstration page uses our WeatherBlox Daily Observations layout. Learn more.

Left ArrowRight Arrow

Hourly Observations for February 20, 2019

Temp ( °F °C ) Dew Point ( °F °C ) Humidity (%) Winds ( mph kmh ) Pressure ( in mb ) Visibility ( mi km ) Precip ( " mm )
12:30 am 00:30 Cloudy with Light Snow 32 undefined 26 -3.3 79 79 E 6 9 30.39 1029 2.5 4.02335 N/A
12:40 am 00:40 Cloudy with Light Snow 31 -0.6 27 -2.8 85 85 E 8 13 30.38 1029 1.5 2.41401 N/A
12:51 am 00:51 Mostly Cloudy with Light Snow 30 -1 27 -3 86 86 E 9 15 30.36 1028 0.75 1.207005 0.01 0.254
12:53 am 00:53 Mostly Cloudy with Light Snow 31 -0.6 27 -2.8 85 85 E 9 15 30.34 1028 0.75 1.207005 0.01 0.254
1:36 am 01:36 Mostly Cloudy with Light Snow 30 -1.1 27 -2.8 88 88 ENE 8 13 30.34 1027 1 1.60934 0.09 2.286
1:45 am 01:45 Cloudy with Light Snow 30 -1.1 28 -2.2 92 92 E 7 11 30.34 1027 2 3.21868 0.12 3.048
1:53 am 01:53 Cloudy with Light Snow 31 -0.6 28 -2.2 89 89 ENE 6 9 30.32 1027 2.5 4.02335 0.13 3.302
2:00 am 02:00 Cloudy with Light Snow 31 -0.6 28 -2.2 89 89 NE 6 9 30.34 1027 3 4.82802 0.02 0.508
2:07 am 02:07 Cloudy with Light Wintry Mix 31 -0.6 28 -2.2 89 89 NE 9 15 30.32 1027 3 4.82802 0.04 1.016
2:21 am 02:21 Cloudy with Freezing Rain 31 -0.6 28 -2.2 89 89 ENE 10 17 30.28 1025 4 6.43736 0.06 1.524
2:48 am 02:48 Cloudy with Freezing Rain 32 undefined 28 -2 87 87 ESE 6 9 30.25 1025 4 6.43736 0.13 3.302
2:53 am 02:53 Cloudy with Freezing Rain 32 undefined 29 -1.7 88 88 E 8 13 30.23 1024 3 4.82802 0.15 3.81
3:36 am 03:36 Cloudy with Freezing Rain 33 0.6 30 -1.1 89 89 E 12 19 30.2 1023 2.5 4.02335 0.29 7.366
3:44 am 03:44 Cloudy with Freezing Rain 33 0.6 30 -1.1 89 89 E 12 19 30.18 1022 3 4.82802 0.34 8.636
3:53 am 03:53 Cloudy with Freezing Rain 33 0.6 30 -1.1 89 89 E 10 17 30.17 1022 2.5 4.02335 0.47 11.938
4:01 am 04:01 Cloudy with Freezing Rain 33 0.6 30 -1.1 89 89 E 9 15 30.17 1022 3 4.82802 0.05 1.27
4:29 am 04:29 Cloudy with Nearby Thunderstorms 33 0.6 30 -1.1 89 89 E 8 13 30.14 1021 4 6.43736 0.19 4.826
4:50 am 04:50 Cloudy with Rain 34 1 30 -1 87 87 E 7 11 30.14 1021 4 6.43736 0.25 6.35
4:53 am 04:53 Cloudy with Rain 33 0.6 31 -0.6 92 92 E 8 13 30.12 1020 4 6.43736 0.26 6.604
5:53 am 05:53 Cloudy with Heavy Rain 33 0.6 31 -0.6 92 92 E 9 15 30.07 1018 4 6.43736 0.24 6.096
6:53 am 06:53 Cloudy with Light Rain 34 1.1 31 -0.6 89 89 NE 7 11 30.06 1018 6 9.65604 0.16 4.064
7:53 am 07:53 Cloudy 35 1.7 32 undefined 89 89 E 10 17 30.02 1017 10 16.0934 0.01 0.254
8:53 am 08:53 Cloudy 35 1.7 33 0.6 93 93 E 8 13 30.03 1017 9 14.48406 N/A
9:53 am 09:53 Cloudy with Light Rain 36 2.2 34 1.1 93 93 E 6 9 30.03 1017 3 4.82802 N/A
10:00 am 10:00 Cloudy with Mist and Fog 36 2.2 34 1.1 93 93 E 7 11 30.04 1017 2 3.21868 N/A
10:08 am 10:08 Cloudy with Mist and Fog 36 2.2 34 1.1 93 93 E 6 9 30.03 1017 1.75 2.816345 N/A
10:39 am 10:39 Cloudy with Mist and Fog 36 2.2 34 1.1 93 93 ESE 6 9 30.01 1016 2 3.21868 N/A
10:53 am 10:53 Cloudy with Mist and Fog 36 2.2 35 1.7 97 97 ESE 5 7 29.98 1015 2 3.21868 0.01 0.254
11:06 am 11:06 Cloudy with Mist and Fog 37 2.8 35 1.7 93 93 ESE 6 9 30 1016 1.75 2.816345 N/A
11:13 am 11:13 Cloudy with Light Rain 37 2.8 35 1.7 93 93 ESE 7 11 29.99 1015 1.5 2.41401 N/A
11:28 am 11:28 Cloudy with Mist and Fog 37 2.8 36 2.2 96 96 ESE 5 7 29.99 1015 2 3.21868 N/A
11:49 am 11:49 Cloudy with Mist and Fog 37 3 37 3 100 100 ESE 5 7 29.98 1015 2.5 4.02335 N/A
11:53 am 11:53 Cloudy with Mist and Fog 38 3.3 37 2.8 97 97 ESE 5 7 29.96 1015 2.5 4.02335 N/A
12:13 pm 12:13 Cloudy with Mist and Fog 39 3.9 38 3.3 96 96 ESE 3 6 29.96 1015 2 3.21868 N/A
12:36 pm 12:36 Cloudy with Mist and Fog 40 4.4 39 3.9 97 97 N N/A 29.94 1014 2 3.21868 N/A
12:53 pm 12:53 Cloudy with Mist and Fog 41 5 40 4.4 96 96 N N/A 29.91 1013 2.5 4.02335 N/A
1:12 pm 13:12 Cloudy with Mist and Fog 42 5.6 41 5 96 96 ESE 5 7 29.87 1011 1.5 2.41401 N/A
1:18 pm 13:18 Cloudy with Mist and Fog 43 6.1 42 5.6 97 97 VRB 5 7 29.87 1011 2 3.21868 N/A
1:29 pm 13:29 Cloudy with Mist and Fog 44 6.7 42 5.6 93 93 SE 5 7 29.86 1011 4 6.43736 N/A
1:53 pm 13:53 Cloudy with Mist and Fog 44 6.7 42 5.6 93 93 VRB 6 9 29.85 1011 6 9.65604 N/A
2:09 pm 14:09 Cloudy with Light Rain 44 6.7 42 5.6 93 93 VRB 5 7 29.84 1010 1.75 2.816345 0.01 0.254
2:19 pm 14:19 Cloudy with Light Rain 45 7.2 42 5.6 90 90 VRB 3 6 29.83 1010 2.5 4.02335 0.01 0.254
2:39 pm 14:39 Cloudy with Rain 44 6.7 42 5.6 93 93 VRB 5 7 29.84 1010 1.5 2.41401 0.04 1.016
2:49 pm 14:49 Cloudy with Light Rain 45 7 43 6 93 93 VRB 6 9 29.83 1010 2.5 4.02335 0.06 1.524
2:53 pm 14:53 Cloudy with Light Rain 45 7.2 43 6.1 93 93 VRB 5 7 29.83 1010 5 8.0467 0.06 1.524
3:53 pm 15:53 Cloudy with Light Rain 45 7.2 43 6.1 93 93 SSE 3 6 29.8 1009 3 4.82802 0.03 0.762
3:55 pm 15:55 Cloudy with Heavy Rain 45 7.2 43 6.1 93 93 VRB 5 7 29.81 1009 1.75 2.816345 0.01 0.254
4:03 pm 16:03 Cloudy with Rain 45 7.2 43 6.1 93 93 VRB 3 6 29.81 1009 1.25 2.011675 0.03 0.762
4:19 pm 16:19 Cloudy with Rain 46 7.8 44 6.7 93 93 N N/A 29.8 1009 2 3.21868 0.07 1.778
4:32 pm 16:32 Cloudy with Light Rain 46 7.8 44 6.7 93 93 N N/A 29.8 1009 5 8.0467 0.07 1.778
4:53 pm 16:53 Cloudy with Light Rain 46 7.8 44 6.7 93 93 N N/A 29.8 1009 4 6.43736 0.08 2.032
5:19 pm 17:19 Cloudy with Light Rain 45 7.2 43 6.1 93 93 N N/A 29.82 1010 1.75 2.816345 0.01 0.254
5:27 pm 17:27 Cloudy with Light Rain 45 7.2 43 6.1 93 93 N N/A 29.82 1010 1.5 2.41401 0.01 0.254
5:53 pm 17:53 Cloudy with Light Rain 45 7.2 43 6.1 93 93 N N/A 29.81 1010 1 1.60934 0.04 1.016
6:00 pm 18:00 Cloudy with Rain 45 7.2 43 6.1 93 93 N N/A 29.82 1010 0.5 0.80467 0.02 0.508
6:21 pm 18:21 Cloudy with Light Rain 45 7.2 43 6.1 93 93 N N/A 29.83 1010 1.75 2.816345 0.02 0.508
6:25 pm 18:25 Cloudy with Light Rain 45 7.2 43 6.1 93 93 N N/A 29.83 1010 3 4.82802 0.02 0.508
6:40 pm 18:40 Cloudy with Mist and Fog 45 7.2 43 6.1 93 93 N N/A 29.84 1010 1.75 2.816345 0.02 0.508
6:48 pm 18:48 Cloudy with Light Rain 45 7 43 6 93 93 N N/A 29.84 1010 1.5 2.41401 0.02 0.508
6:53 pm 18:53 Cloudy with Light Rain 45 7.2 43 6.1 93 93 WNW 3 6 29.84 1010 1.75 2.816345 0.02 0.508
7:53 pm 19:53 Cloudy with Mist and Fog 48 8.9 46 7.8 93 93 WSW 7 11 29.86 1011 6 9.65604 N/A
8:27 pm 20:27 Cloudy 47 8.3 46 7.8 97 97 W 6 9 29.87 1012 10 16.0934 N/A
8:36 pm 20:36 Cloudy 47 8.3 46 7.8 97 97 W 8 13 29.87 1012 10 16.0934 N/A
8:43 pm 20:43 Cloudy 48 8.9 46 7.8 93 93 WSW 6 9 29.87 1012 10 16.0934 N/A
8:53 pm 20:53 Cloudy 48 8.9 46 7.8 93 93 W 14 22 29.88 1012 10 16.0934 N/A
9:53 pm 21:53 Cloudy 46 7.8 42 5.6 86 86 W 13 20 29.92 1013 10 16.0934 N/A
10:53 pm 22:53 Cloudy 46 7.8 41 5 83 83 W 13 20 29.96 1015 10 16.0934 N/A
11:53 pm 23:53 Cloudy 44 6.7 37 2.8 76 76 W 7 11 30 1016 10 16.0934 N/A

Powered by AerisWeather